Le nostre stazioni meteo in Italia

Pubblicità
Il mio iltempo24.it
Chillingham Barns, Gran Bretagna (99196): Temperatura & dewpoint: 21.04.2017 17:00:00 - 27.04.2017 17:00:00 (BST)Chillingham Barns, Gran Bretagna (99196): precipitazioni: 21.04.2017 17:00:00 - 27.04.2017 17:00:00 (BST)
Data & Tempo tt [°C] td [°C] rr [mm]
27.04.2017 17:00:00 8,6 4,1 0,0
27.04.2017 16:00:00 9,3 5,7 0,0
27.04.2017 15:00:00 9,9 6,0 0,0
27.04.2017 14:00:00 12,1 4,8 0,0
27.04.2017 13:00:00 11,2 3,9 0,0
27.04.2017 12:00:00 9,5 3,8 0,0
27.04.2017 11:00:00 8,8 4,2 0,0
27.04.2017 10:00:00 8,6 3,7 0,0
27.04.2017 09:00:00 8,3 4,0 0,0
27.04.2017 08:00:00 7,7 4,1 0,0
27.04.2017 07:00:00 6,8 3,3 0,0
27.04.2017 06:00:00 6,5 3,0 0,0
27.04.2017 05:00:00 6,4 2,6 0,0
27.04.2017 04:00:00 6,4 2,0 0,0
27.04.2017 03:00:00 6,2 1,7 0,2
27.04.2017 02:00:00 6,1 1,5 0,0
27.04.2017 01:00:00 5,6 1,0 0,0
27.04.2017 00:00:00 4,0 0,2 0,0
26.04.2017 23:00:00 3,9 0,0 0,0
26.04.2017 22:00:00 4,9 0,8 0,0
26.04.2017 21:00:00 5,0 0,9 0,0
26.04.2017 20:00:00 5,9 0,0 0,0
26.04.2017 19:00:00 6,3 -0,9 0,0
26.04.2017 18:00:00 6,5 -2,0 0,0
26.04.2017 17:00:00 7,5 -1,0 0,0
26.04.2017 16:00:00 7,7 -1,7 0,0
26.04.2017 15:00:00 8,5 -0,3 0,0
26.04.2017 14:00:00 7,1 -1,4 0,0
26.04.2017 13:00:00 7,8 -0,8 0,0
26.04.2017 12:00:00 5,5 -1,1 0,0
26.04.2017 11:00:00 5,1 -0,1 0,0
26.04.2017 10:00:00 5,2 -0,3 0,0
26.04.2017 09:00:00 4,4 0,1 0,0
26.04.2017 08:00:00 2,2 -0,9 0,0
26.04.2017 07:00:00 1,3 -1,6 0,0
26.04.2017 06:00:00 1,1 -1,6 0,0
26.04.2017 05:00:00 1,6 -1,3 0,0
26.04.2017 04:00:00 1,7 -0,9 0,0
26.04.2017 03:00:00 2,1 1,5 0,6
26.04.2017 02:00:00 1,8 1,2 0,8
26.04.2017 01:00:00 1,6 0,9 2,0
26.04.2017 00:00:00 2,3 0,4 0,6
25.04.2017 23:00:00 3,5 0,9 0,0
25.04.2017 22:00:00 3,9 1,0 0,0
25.04.2017 21:00:00 4,0 1,9 0,2
25.04.2017 20:00:00 4,4 1,8 0,0
25.04.2017 19:00:00 4,2 2,1 0,0
25.04.2017 18:00:00 4,4 2,5 0,8
25.04.2017 17:00:00 3,4 2,3 0,6
25.04.2017 16:00:00 5,3 2,0 0,0
25.04.2017 15:00:00 5,7 2,6 0,0
25.04.2017 14:00:00 3,4 1,9 0,8
25.04.2017 13:00:00 5,6 2,2 0,0
25.04.2017 12:00:00 5,2 2,2 0,0
25.04.2017 11:00:00 5,0 2,6 0,2
25.04.2017 10:00:00 3,0 1,9 0,6
25.04.2017 09:00:00 1,7 0,6 0,4
25.04.2017 08:00:00 2,9 -0,6 1,0
25.04.2017 07:00:00 2,0 -1,1 0,6
25.04.2017 06:00:00 1,5 -1,6 0,0
25.04.2017 05:00:00 1,3 -1,5 0,0
25.04.2017 04:00:00 1,0 -0,7 0,0
25.04.2017 03:00:00 0,3 -0,2 0,0
25.04.2017 02:00:00 0,1 -0,4 0,0
25.04.2017 01:00:00 1,5 -2,7 0,0
25.04.2017 00:00:00 1,6 -0,6 0,0
24.04.2017 23:00:00 0,4 -3,1 0,0
24.04.2017 22:00:00 1,4 -3,8 0,0
24.04.2017 21:00:00 2,6 -3,1 0,0
24.04.2017 20:00:00 2,8 -1,5 0,0
24.04.2017 19:00:00 1,4 0,2 0,2
24.04.2017 18:00:00 3,6 -1,8 0,0
24.04.2017 17:00:00 6,4 -1,9 0,0
24.04.2017 16:00:00 6,2 -0,7 0,2
24.04.2017 15:00:00 4,1 0,7 0,2
24.04.2017 14:00:00 10,6 -3,4 0,0
24.04.2017 13:00:00 10,3 -3,1 0,0
24.04.2017 12:00:00 9,5 -0,9 0,0
24.04.2017 11:00:00 9,3 -1,0 0,0
24.04.2017 10:00:00 7,4 -0,8 0,0
24.04.2017 09:00:00 7,3 2,4 0,0
24.04.2017 08:00:00 5,9 2,9 0,0
24.04.2017 07:00:00 4,9 3,1 0,2
24.04.2017 06:00:00 4,8 3,6 0,4
24.04.2017 05:00:00 5,7 4,7 0,6
24.04.2017 04:00:00 8,7 4,6 0,0
24.04.2017 03:00:00 8,3 4,9 0,0
24.04.2017 02:00:00 8,4 4,7 0,0
24.04.2017 01:00:00 8,4 4,5 0,0
24.04.2017 00:00:00 7,9 4,1 0,0
23.04.2017 23:00:00 8,6 4,2 0,0
23.04.2017 22:00:00 8,7 3,3 0,0
23.04.2017 21:00:00 9,2 3,1 0,0
23.04.2017 20:00:00 10,3 2,4 0,0
23.04.2017 19:00:00 12,0 4,5 0,0
23.04.2017 18:00:00 13,8 3,4 0,0
23.04.2017 17:00:00 14,2 2,2 0,0
23.04.2017 16:00:00 13,4 3,1 0,0
23.04.2017 15:00:00 14,7 3,2 0,0
23.04.2017 14:00:00 14,1 2,3 0,0
23.04.2017 13:00:00 13,0 1,7 0,0
23.04.2017 12:00:00 11,7 0,5 0,0
23.04.2017 11:00:00 11,0 1,8 0,0
23.04.2017 10:00:00 9,9 2,0 0,0
23.04.2017 09:00:00 6,4 2,3 0,0
23.04.2017 08:00:00 5,3 2,5 0,0
23.04.2017 07:00:00 2,4 1,9 0,0
23.04.2017 06:00:00 2,7 2,0 0,0
23.04.2017 05:00:00 2,9 1,6 0,0
23.04.2017 04:00:00 3,3 2,1 0,0
23.04.2017 03:00:00 3,9 2,0 0,0
23.04.2017 02:00:00 4,1 2,2 0,0
23.04.2017 01:00:00 4,1 2,1 0,0
23.04.2017 00:00:00 4,4 2,0 0,0
22.04.2017 23:00:00 5,3 1,9 0,0
22.04.2017 22:00:00 5,9 1,7 0,0
22.04.2017 21:00:00 6,5 1,7 0,0
22.04.2017 20:00:00 7,6 -0,5 0,0
22.04.2017 19:00:00 9,0 -0,5 0,0
22.04.2017 18:00:00 10,0 -0,8 0,0
22.04.2017 17:00:00 10,0 -0,5 0,0
22.04.2017 16:00:00 9,1 -0,5 0,0
22.04.2017 15:00:00 8,8 -0,6 0,0
22.04.2017 14:00:00 9,4 -1,0 0,0
22.04.2017 13:00:00 8,5 -1,2 0,0
22.04.2017 12:00:00 7,6 0,4 0,0
22.04.2017 11:00:00 8,0 0,0 0,0
22.04.2017 10:00:00 6,7 2,0 0,0
22.04.2017 09:00:00 6,1 2,2 0,0
22.04.2017 08:00:00 5,2 1,9 0,0
22.04.2017 07:00:00 4,6 2,0 0,0
22.04.2017 06:00:00 5,0 2,9 0,0
22.04.2017 05:00:00 5,2 3,8 0,0
22.04.2017 04:00:00 5,1 4,6 0,0
22.04.2017 03:00:00 5,0 4,6 0,2
22.04.2017 02:00:00 5,6 5,0 0,0
22.04.2017 01:00:00 5,8 4,4 0,2
22.04.2017 00:00:00 6,5 5,4 0,0
21.04.2017 23:00:00 6,3 6,0 0,0
21.04.2017 22:00:00 6,1 5,9 0,0
21.04.2017 21:00:00 6,1 5,2 0,0
21.04.2017 20:00:00 7,6 7,1 0,0
21.04.2017 19:00:00 8,2 7,6 0,0
21.04.2017 18:00:00 8,3 7,6 0,4
21.04.2017 17:00:00 8,0 7,0 2,2

tt = Temperatura
td = dewpoint
rr = precipitazioni

Stazioni seguenti

WeatherPro
AMSI
MeteoEarth